Location: Domont
(49.0278°N, 2.3264°E)
Time: 05:37:47
(UTC+00:00)

N. Korean satellite - Pass Details

Date: 22 January 2022
Orbit: 438 x 478 km, 97.3° (Epoch: 21 May)

Event Time Altitude Azimuth Distance (km) Brightness Sun altitude
Rises 04:34:39 0° 21° (NNE) 2,626 10.6 -29.0°
Reaches altitude 10° 04:36:55 10° 31° (NNE) 1,741 9.7 -28.6°
Maximum altitude 04:40:19 32° 96° (E) 901 8.4 -28.0°
Enters shadow 04:42:06 21° 143° (SE) 1,191 8.8 -27.8°
Exits shadow 04:44:59 - 168° (SSE) 2,225 10.0 -27.3°
Sets 04:45:57 0° 171° (S) 2,612 10.4 -27.1°
